Simultaneous Nadir Overpasses (SNOs) Predictions

Prediction of SNOs between AQUA and GOES-15 Satellite Orbit:

Table of predicted SNOs for the next 14.0 days since TLE Epoch: 3/8/2019
Index Date Time (AQUA) AQUA Lat,Lon GOES-15 Lat,Lon Distance(km) Time Diff (sec)
1 03/10/2019 21:58:23 0.57,-125.70 0.00,-128.36 302.34 80
2 03/11/2019 10:19:39 0.53,-130.86 0.00,-128.40 279.38 80
3 03/13/2019 10:07:29 -0.11,-127.91 0.00,-128.39 55.22 80
4 03/15/2019 09:55:19 -0.75,-124.96 0.00,-128.37 389.03 80
5 03/15/2019 22:16:42 -0.42,-130.13 -0.00,-128.32 206.66 80
6 03/17/2019 22:04:32 0.24,-127.18 -0.00,-128.29 126.45 80
7 03/18/2019 10:25:47 0.88,-132.34 0.01,-128.33 456.23 80
8 03/19/2019 21:52:21 0.84,-124.22 -0.00,-128.27 459.28 80
9 03/20/2019 10:13:37 0.22,-129.39 0.00,-128.30 123.44 80
10 03/22/2019 10:01:27 -0.38,-126.43 0.00,-128.27 209.21 80




NCC Satellite Simultaneous Nadir Overpasses (SNOs) Prediction Service
